DIAPASON (D1-A)

Satellite information

Favourite Embed

Satellite Type and Status

PAYLOADIN ORBIT

Key statistics

Satellite DIAPASON (D1-A) at a glance.

Uptime

21850

Days in orbit

Revolutions

≈ 12.7

Per day

Orbit

MEO

Medium Earth Orbit

Inclination

34.1

Latest

Satellite identification and parameters

Extended collection of information and parameters for DIAPASON (D1-A).

Object identification

Identified? True

Debris? False

Object name: DIAPASON (D1-A)

International designator: 1966-013A

Object number (NORAD): 2016

Object ID (CCSDS): 2016

Country: FRANCE (FR)

Current information (Y/N): Y

RCS size: LARGE

Orbital parameters

Period: 113.727 minutes

Inclination: 34.096 deg

SMA: 7775.626 km

Apoapsis: 2299.238 km

Periapsis: 495.745 km

RAAN: 34.6405 deg

Eccentricy: 0.11597093

Argument of periapsis: 320.1279 deg

Mean anomaly: 31.9503 deg

Mean motion: 12.66192328 rev/day

Mean motion (dot): 0.00002486 rev/day2

B* drag term: 0.00070179502 1/REarth

Two-line elements (TLE)

Creation date: Dec. 14, 2025, 3:07 a.m.

Reference frame: TEME

Reference center: EARTH

Epoch: Dec. 13, 2025, 12:59 p.m. UTC

TLE line 0: 0 DIAPASON (D1-A)

TLE line 1: 1 02016U 66013A 25347.54105885 .00002486 00000-0 70180-3 0 9991

TLE line 2: 2 02016 34.0960 34.6405 1159709 320.1279 31.9503 12.66192328716905

Live tracking on map

Real-time ground track for satellite DIAPASON (D1-A).

In-orbit conjunctions

A list of the most updated potential collisions computed for object DIAPASON (D1-A).

Target Orbit TCA Probability of collision Miss distance Type
THORAD AGENA D DEB LEO 2024-08-21 19:38:41 0.0001189529 488.0 (m) DEBRIS

Associated space launch

Diapason was a small cylindrical satellite, 20 cm long and 50 cm in diameter which was used for making geodetic measurements.

DIAPASON (D1-A) was lifted into orbit during the mission ‘Diamant A | Diapason D-1A’, on board a Diamant A space rocket.

The launch took place on Feb. 17, 1966, 8:33 a.m. from Brigitte.

For more information about the launch, click the button.

Launch to space Diamant A | Diapason D-1A
Diamant A | Diapason D-1A

Agency: N/A

Status: Launch Successful

Launch date: Feb. 17, 1966, 8:33 a.m. UTC

Rocket: Diamant A

Launch pad: Brigitte

Location: Interarmy Special Vehicles Test Centre, French Algeria

...

Latest news about this satellite

There are no fresh news available about this satellite. Check back as we update our databases every day.


Newsletter sign-up

Weekly statistics, charts and insights to help you stay on top of the space industry.